Tracking 23762 objects as of 21-Oct-2021
HD Live streaming from Space Station
objects crossing your sky now

GLOBALSTAR M003

Track GLOBALSTAR M003 now!
10-day predictions
GLOBALSTAR M003 is classified as:


NORAD ID: 25165
Int'l Code: 1998-008D
Perigee: 1,628.9 km
Apogee: 1,641.5 km
Inclination: 52.0 °
Period: 118.8 minutes
Semi major axis: 8006 km
RCS: 2.2435 m2 (large)
Launch date: February 14, 1998
Source: Globalstar (GLOB)
Launch site: AIR FORCE EASTERN TEST RANGE (AFETR)
aabbcc
Your satellite tracking list
Your tracking list is empty




NASA's NSSDC Master Catalog

Two Line Element Set (TLE):
1 25165U 98008D   21293.64510626 -.00000223  00000-0 -14227-2 0  9998
2 25165  51.9662 268.4110 0007836 116.1053  55.9649 12.11893753 71379
Source of the keplerian elements: AFSPC